Regional Weather Roundup
Issued by NWS Grand Forks, ND

Home | Current Version | Previous Version | Graphics & Text | Print | Product List | Glossary On
Versions: 1 2 3 4 5 6 7 8 9 10 11 12 13 14 15 16 17 18 19 20 21 22 23 24 25 26 27 28 29 30 31 32 33 34 35 36 37 38 39 40 41 42 43 44 45 46 47 48 49 50
000
ASUS43 KFGF 200631
RWRFGF
PRAIRIE TO PINES  WEATHER ROUNDUP
NATIONAL WEATHER SERVICE EASTERN NORTH DAKOTA/GRAND FORKS ND
100 AM CDT SUN MAY 20 2018

 **SATELLITE DATA USED TO AUGMENT SKY COVER AT AUTOMATED STATIONS**
 *****  WEATHER ACROSS EASTERN NORTH DAKOTA  *****

CITY           SKY/WX    TMP DP  RH WIND       PRES   REMARKS
GRAND FORKS    FAIR      41  38  89 SW7       30.22R
6HR MIN TEMP:  39; 6HR MAX TEMP:  66;

GRAND FRKS AFB FAIR      40  40 100 W3        30.22S
GRAND FRKS NWS   N/A     45  38  76 SW3       30.19S
DEVILS LAKE    FAIR      45  40  82 CALM      30.25S
6HR MIN TEMP:  43; 6HR MAX TEMP:  63;

FARGO          FAIR      48  35  60 CALM      30.22R
WAHPETON ARPT  FAIR      50  32  50 NE7       30.22R
$$

 ***** WEATHER ACROSS CENTRAL AND WESTERN NORTH DAKOTA  *****

CITY           SKY/WX    TMP DP  RH WIND       PRES   REMARKS
BISMARCK       FAIR      48  39  71 NE5       30.27R
6HR MIN TEMP:  47; 6HR MAX TEMP:  63;

MINOT          FAIR      50  31  48 SW9       30.23R
6HR MIN TEMP:  50; 6HR MAX TEMP:  68;

JAMESTOWN      FAIR      47  37  68 CALM      30.23S
6HR MIN TEMP:  43; 6HR MAX TEMP:  62;

MINOT AFB      FAIR      48  28  46 SW10      30.22R
GARRISON         N/A     42  29  59 W3        30.25R
WILLISTON      FAIR      45  32  60 CALM      30.25S
6HR MIN TEMP:  42; 6HR MAX TEMP:  65;

DICKINSON      FAIR      39  32  76 S7        30.25S
6HR MIN TEMP:  39; 6HR MAX TEMP:  63;

HETTINGER      FAIR      41  33  73 CALM      30.28S
6HR MIN TEMP:  38; 6HR MAX TEMP:  60;

$$

 *****  OTHER AIRPORT OBSERVATIONS IN OUR AREA  *****

CITY           SKY/WX    TMP DP  RH WIND       PRES   REMARKS
WALHALLA       FAIR      41  41 100 SW3       30.22S
GRAFTON AIRPOR FAIR      46  39  76 W7        30.23S
VALLEY CITY AR FAIR      48  37  66 CALM      30.25S
CANDO          FAIR      43  41  93 SW5       30.26S
CAVALIER APRT    N/A     41  37  87 W6        30.21S
GWINNER          N/A     46  32  57 CALM      30.22S
SHEYENNE NWR     N/A     52  32  47 E7        29.95
ROLLA          FAIR      45  37  76 S10       30.24S
 ***** THE ABOVE OBSERVATIONS ARE NON NWS ARE NOT QUALITY
       CONTROLLED AND MAY MIS-REPORT RAIN FOR SNOW...
$$

  *****  WEATHER ACROSS NORTHERN MINNESOTA  *****

CITY           SKY/WX    TMP DP  RH WIND       PRES   REMARKS
FLAG ISLAND    FAIR      54  34  47 SW12      30.18F
WARROAD        FAIR      41  37  87 SW5       30.21F
ROSEAU         FAIR      45  37  76 S6        30.21S
HALLOCK        FAIR      45  37  76 CALM      30.21S
THF RVR FALLS  FAIR      44  38  79 CALM      30.23S
6HR MIN TEMP:  44; 6HR MAX TEMP:  63;

BAUDETTE       FAIR      43  37  79 CALM      30.21S
6HR MIN TEMP:  40; 6HR MAX TEMP:  60;

WASKISH        FAIR      34  34 100 CALM      30.22F
CROOKSTON      FAIR      48  37  66 S3        30.23F
STEPHEN NDAWN    N/A     43  36  75 SE5         N/A
GREENBUSH NDAW   N/A     45  39  81 S3          N/A
$$
  *****  WEATHER ACROSS CENTRAL AND WEST MINNESOTA  *****

CITY           SKY/WX    TMP DP  RH WIND       PRES   REMARKS
FOSSTON        FAIR      37  27  65 CALM      30.23F
BEMIDJI        FAIR      33  32  94 CALM      30.23R
6HR MIN TEMP:  34; 6HR MAX TEMP:  61;

PARK RAPIDS    FAIR      42  34  73 CALM      30.22R
6HR MIN TEMP:  42; 6HR MAX TEMP:  62;

ELBOW LAKE     FAIR      51  36  57 E6        30.21R
WADENA         FAIR      45  34  65 NE3       30.21S
DETROIT LAKES  FAIR      46  36  66 CALM      30.24R
MOORHEAD       FAIR      43  30  61 CALM      30.23S
FERGUS FALLS   FAIR      46  34  61 NE5       30.19R
MORRIS MN      FAIR      48  34  57 NE5       30.20R
STAPLES        FAIR      45  34  65 CALM      30.21S
$$
  *****  WEATHER ELSEWHERE ACROSS MINNESOTA  *****

CITY           SKY/WX    TMP DP  RH WIND       PRES   REMARKS
DULUTH         FAIR      40  34  79 NE6       30.22R
6HR MIN TEMP:  40; 6HR MAX TEMP:  51;

INTRNTL FALLS  FAIR      35  35 100 CALM      30.21S
6HR MIN TEMP:  34; 6HR MAX TEMP:  60;

ELY            FAIR      32  30  93 CALM      30.22S
CLOQUET        FAIR      39  36  87 E5        30.22R
WHEATON        FAIR      48  30  49 CALM      30.23R
BRAINERD       FAIR      44  37  76 NE3       30.21R
6HR MIN TEMP:  44; 6HR MAX TEMP:  60;

HIBBING        FAIR      32  30  92 CALM      30.21S
6HR MIN TEMP:  31; 6HR MAX TEMP:  56;

ALEXANDRIA     FAIR      52  34  50 NE9       30.20R
6HR MIN TEMP:  52; 6HR MAX TEMP:  63;

SAINT CLOUD    FAIR      48  40  73 NE5       30.19R
6HR MIN TEMP:  48; 6HR MAX TEMP:  58;

MINNEAPOLIS    MOCLDY    51  39  63 NE15G22   30.18R
6HR MIN TEMP:  51; 6HR MAX TEMP:  56;

$$

  *****  WEATHER ACROSS SOUTH DAKOTA  *****

CITY           SKY/WX    TMP DP  RH WIND       PRES   REMARKS
SIOUX FALLS    CLOUDY    55  47  74 NE16      30.12S
6HR MIN TEMP:  55; 6HR MAX TEMP:  61;

BROOKINGS      CLOUDY    53  42  66 NE7       30.16R
WATERTOWN      FAIR      50  35  56 NE10      30.17R
6HR MIN TEMP:  50; 6HR MAX TEMP:  62;

HURON          FAIR      53  38  56 NE8       30.17R
6HR MIN TEMP:  53; 6HR MAX TEMP:  64;

SISSETON         N/A     48  34  58 N8        30.20R
ABERDEEN       FAIR      49  33  54 N7        30.21R
6HR MIN TEMP:  49; 6HR MAX TEMP:  66;

MITCHELL       CLOUDY    57  40  52 NE10      30.15R
PIERRE         FAIR      51  40  65 N12       30.20R
6HR MIN TEMP:  51; 6HR MAX TEMP:  61;

MOBRIDGE       FAIR      53  38  56 NE12      30.22S
RAPID CITY     FAIR      43  37  79 N7        30.26S
6HR MIN TEMP:  41; 6HR MAX TEMP:  52;

$$

  *****  SOME WEATHER IN NEARBY STATES *****

CITY           SKY/WX    TMP DP  RH WIND       PRES   REMARKS
GLASGOW MT     FAIR      48  38  68 E12       30.20S
6HR MIN TEMP:  48; 6HR MAX TEMP:  63;

GREAT FALLS MT CLOUDY    51  43  74 S6        30.11F
6HR MIN TEMP:  50; 6HR MAX TEMP:  55;

CHEYENNE WY    CLOUDY    38  38 100 CALM      30.27S
6HR MIN TEMP:  37; 6HR MAX TEMP:  42; 6HR PCP: TRACE;

SCOTTSBLUFF NE CLOUDY    44  42  93 W5        30.28S
6HR MIN TEMP:  44; 6HR MAX TEMP:  45; 6HR PCP:  0.02;

OMAHA NE       FAIR      58  56  93 N8        30.03S
6HR MIN TEMP:  58; 6HR MAX TEMP:  63; 6HR PCP: TRACE;

DES MOINES IA  FAIR      64  58  80 N9        29.98R
6HR MIN TEMP:  64; 6HR MAX TEMP:  71;

DAVENPORT IA   FAIR      68  60  75 E9        29.97S
6HR MIN TEMP:  68; 6HR MAX TEMP:  78; 6HR PCP: TRACE;

CHICAGO IL     FOG       54  51  90 NE17      30.04R VSB 1/2
6HR MIN TEMP:  56; 6HR MAX TEMP:  66;

EAU CLAIRE WI  CLOUDY    48  38  68 NE10      30.14R
6HR MIN TEMP:  48; 6HR MAX TEMP:  52;

LA CROSSE WI   LGT RAIN  54  43  66 N10       30.09R
6HR MIN TEMP:  55; 6HR MAX TEMP:  70;

$$

  *****  SOME NATIONAL WEATHER *****

CITY           SKY/WX    TMP DP  RH WIND       PRES   REMARKS
LA GUARDIA NY  FOG       55  54  96 CALM      30.02F VSB 1/4
6HR MIN TEMP:  54; 6HR MAX TEMP:  55; 6HR PCP:  0.02;

RALEIGH NC     MOCLDY    69  69 100 S9        30.13F
6HR MIN TEMP:  69; 6HR MAX TEMP:  73;

ATLANTA GA     MOCLDY    72  69  90 SE3       30.11R
6HR MIN TEMP:  72; 6HR MAX TEMP:  83;

NEW ORLEANS LA FAIR      79  74  84 SE7       30.02F
6HR MIN TEMP:  78; 6HR MAX TEMP:  85;

OKLAHOMA CITY  TSTM      65  59  81 S20G30    29.95S
6HR MIN TEMP:  65; 6HR MAX TEMP:  81; 6HR PCP:  0.11;

ALBUQUERQUE NM FAIR      67  34  29 E21G31    29.98R
6HR MIN TEMP:  67; 6HR MAX TEMP:  81;

SALT LAKE CITY FAIR      63  45  51 S5        29.96S
6HR MIN TEMP:  62; 6HR MAX TEMP:  76;

LOS ANGELES CA CLOUDY


USA.gov is the U.S. government's official web portal to all federal, state and local government web resources and services.